Regional Weather Roundup
Issued by NWS State College, PA

Home | Current Version | Previous Version | Graphics & Text | Print | Product List | Glossary Off
Versions: 1 2 3 4 5 6 7 8 9 10 11 12 13 14 15 16 17 18 19 20 21 22 23 24 25 26 27 28 29 30 31 32 33 34 35 36 37 38 39 40 41 42 43 44 45 46 47 48 49 50

000
ASUS41 KCTP 030403
RWRCTP

REGIONAL WEATHER ROUNDUP
NATIONAL WEATHER SERVICE STATE COLLEGE PA
1200 AM EDT MON AUG 03 2015

Note: "fair" indicates few or no clouds below 12,000 feet with no
significant weather and/or obstructions to visibility.

* = STATION THAT DOES NOT REPORT PRECIPITATION /E.G. RAIN...SNOW...ETC/
    THUNDER OR FOG.

PAZ002>004-007>009-013>016-020>023-029>032-030500-
WESTERN PENNSYLVANIA

CITY           SKY/WX    TMP DP  RH WIND       PRES   REMARKS
ERIE           LGT RAIN  80  60  50 S30G39    29.70F
MEADVILLE      PTCLDY    74  61  63 S14G21    29.80F
FRANKLIN*      PTCLDY    72  59  64 SW15G23   29.84F
NEW CASTLE     FAIR      74  63  68 S9        29.83F
BEAVER COUNTY  NOT AVBL
BUTLER*        CLEAR     72  61  68 SW8       29.88F
PITTSBURGH INT CLEAR     75  60  59 SW8       29.88F
PITTSBURGH     CLEAR     74  56  53 SW12      29.88F
INDIANA*       PTCLDY    70  63  78 SW7       29.92F
LATROBE        NOT AVBL
WASHINGTON CO* NOT AVBL
$$

PAZ004>006-010>012-017>019-024>028-033>037-041-042-045-046-049>053-030500-
CENTRAL PENNSYLVANIA

CITY           SKY/WX    TMP DP  RH WIND       PRES   REMARKS
BRADFORD       MOCLDY    70  60  70 VRB7      29.85F
DUBOIS         CLEAR     72  60  66 SW10      29.87F
CLEARFIELD     CLEAR     69  61  75 SW6       29.89S
JOHNSTOWN      CLEAR     69  57  65 SW9       29.95F
ALTOONA        CLEAR     70  59  68 SW7       29.91F
STATE COLLEGE  PTCLDY    67  62  83 SW5       29.88S
WILLIAMSPORT   CLEAR     69  62  78 CALM      29.82F
SELINSGROVE    CLEAR     66  63  90 CALM      29.85F
FT INDIANTOWN  CLEAR     64  61  91 N2        29.88S
CAPITAL CITY   CLEAR     74  60  61 W6        29.88R
HARRISBURG     PTCLDY    77  62  59 SW14      29.86S
YORK           CLEAR     74  60  61 SW7       29.89S
$$

PAZ038>040-043-044-047-048-054-055-060>062-067>071-030500-
EASTERN PENNSYLVANIA

CITY           SKY/WX    TMP DP  RH WIND       PRES   REMARKS
SCRANTON       CLEAR     74  58  57 CALM      29.86F
MOUNT POCONO   CLEAR     69  56  62 W9        29.92F
ALLENTOWN      CLEAR     72  60  66 NW3       29.87S
QUAKERTOWN*    CLEAR     66  63  88 CALM      29.90R
READING        CLEAR     73  61  65 CALM      29.87S
LANCASTER      CLEAR     71  62  73 W5        29.88S
COATESVILLE    CLEAR     72  63  73 SW3       29.91S
POTTSTOWN      CLEAR     68  62  81 CALM      29.90S
BLUE BELL      CLEAR     72  61  68 CALM      29.88R
DOYLESTOWN     CLEAR     70  58  65 S3        29.88F
WILLOW GROVE   NOT AVBL
NORTH PHILA    CLEAR     78  58  49 SW5       29.89S
PHILADELPHIA   PTCLDY    77  63  61 S9        29.89S
$$



USA.gov is the U.S. government's official web portal to all federal, state and local government web resources and services.